Date,TemperatureHighF,TemperatureAvgF,TemperatureLowF,DewpointHighF,DewpointAvgF,DewpointLowF,HumidityHigh,HumidityAvg,HumidityLow,PressureMaxIn,PressureMinIn,WindSpeedMaxMPH,WindSpeedAvgMPH,GustSpeedMaxMPH,PrecipitationSumIn
2013-1-1,50.0,45.4,40.7,38.8,17.0,-19.1,92,38,6,30.08,29.90,21,6,21,0.04
2013-1-2,42.0,38.7,31.8,40.6,14.0,-3.3,100,40,18,30.19,29.95,16,4,16,0.10
2013-1-3,45.4,36.4,29.1,15.4,2.3,-20.6,41,25,6,30.23,30.14,17,3,17,0.00
2013-1-4,42.5,34.8,27.3,7.0,2.8,-4.4,38,26,14,30.29,30.19,28,12,28,0.00
2013-1-5,53.5,39.8,28.8,15.4,-0.4,-18.1,40,21,5,30.39,30.20,18,5,18,0.00
2013-1-6,48.5,42.7,34.9,22.6,14.6,6.5,58,33,18,30.22,30.06,20,6,20,0.00
2013-1-7,52.3,39.0,28.3,17.5,7.5,-14.3,58,30,6,30.46,30.17,22,5,23,0.00
2013-1-8,62.1,37.7,21.5,28.8,17.8,-1.1,100,54,8,30.45,30.35,8,0,8,0.00
2013-1-9,61.4,45.6,28.3,39.5,29.8,20.9,100,60,27,30.44,30.35,22,3,22,0.00
2013-1-10,62.5,49.8,40.2,22.9,10.0,-11.4,45,23,5,30.58,30.44,13,1,13,0.00
2013-1-11,49.3,43.1,40.4,42.2,33.2,12.2,100,76,24,30.44,30.13,13,2,13,0.07
2013-1-12,78.0,56.6,40.5,59.8,44.3,28.7,100,73,18,30.18,30.10,12,2,12,0.00
2013-1-13,72.8,62.4,55.1,61.1,52.3,37.6,100,74,29,30.12,30.01,13,4,13,0.00
2013-1-14,66.1,55.7,48.2,61.1,52.1,41.0,100,89,45,30.26,30.04,14,2,14,0.71
2013-1-15,48.3,42.6,38.3,48.3,42.6,38.3,100,100,100,30.29,30.11,12,3,12,2.10
2013-1-16,48.1,42.1,37.6,47.5,41.1,37.6,100,97,72,30.11,29.94,14,2,14,0.49
2013-1-17,46.6,39.4,30.4,46.1,34.2,16.1,100,84,36,30.13,30.00,18,3,18,0.68
2013-1-18,43.3,33.8,26.6,24.5,9.4,-5.5,86,41,14,30.50,30.34,17,3,17,1.21
2013-1-19,60.3,35.8,21.3,29.4,15.3,-14.2,100,54,6,30.44,30.08,10,1,10,0.24
2013-1-20,53.2,44.6,36.2,16.0,4.8,-14.6,42,21,6,30.09,29.99,23,9,25,0.00
2013-1-21,50.7,41.1,28.5,8.9,-11.2,-28.6,33,12,5,30.09,29.86,30,9,30,0.00
2013-1-22,30.5,23.1,17.2,-12.8,-27.0,-35.5,16,10,5,30.25,29.97,28,12,28,0.00
2013-1-23,32.2,25.7,15.7,3.1,-15.1,-35.9,31,17,5,30.31,30.00,23,7,23,0.00
2013-1-24,34.4,25.8,15.7,5.2,-13.7,-32.6,36,19,6,30.50,29.96,37,11,37,0.00
2013-1-25,23.9,20.4,15.9,19.3,4.0,-12.6,88,54,23,30.48,30.04,13,3,13,0.00
2013-1-26,39.7,32.9,24.6,9.3,6.6,-3.4,41,33,26,31.00,24.19,16,6,64,0.04
2013-1-27,38.0,28.8,17.4,17.5,11.2,-9.3,87,49,26,30.56,24.19,9,1,12,0.00
2013-1-28,57.7,40.9,28.1,43.4,29.9,-24.8,100,70,23,31.75,24.18,9,2,80,0.13
2013-1-29,77.3,60.7,26.0,48.0,29.7,-34.8,73,37,2,31.75,24.19,11,2,15,0.00
2013-1-30,66.2,60.4,49.7,63.6,55.0,2.0,100,84,50,30.99,24.18,48,7,48,3.59
2013-1-31,62.4,38.5,26.6,46.0,6.6,-31.7,85,28,5,31.12,24.19,36,12,39,0.10
2013-2-1,41.1,25.4,16.6,34.3,-6.3,-23.5,100,28,11,30.35,29.78,23,9,38,0.00
2013-2-2,39.8,26.5,13.6,29.3,4.7,-17.7,99,46,8,30.34,29.98,9,1,12,0.00
2013-2-3,71.8,34.9,26.8,66.6,10.3,-2.7,85,39,22,30.16,29.83,24,8,38,0.19
2013-2-4,70.4,31.5,22.9,20.2,0.9,-36.4,58,29,5,30.23,24.68,20,2,34,0.00
2013-2-5,50.4,42.1,26.6,25.9,16.6,9.1,59,37,19,29.95,29.86,14,3,23,0.00
2013-2-6,58.4,44.7,32.6,30.5,6.7,-14.6,73,26,6,30.30,29.95,16,3,26,0.00
2013-2-7,40.7,37.1,28.6,33.8,20.1,12.3,100,52,39,30.38,30.10,9,1,15,0.01
2013-2-8,50.3,37.4,28.3,35.0,24.2,9.2,100,67,21,30.10,29.83,17,5,29,0.33
2013-2-9,48.4,35.7,26.3,10.3,-7.5,-24.6,41,18,4,30.35,30.05,18,7,29,0.00
2013-2-10,48.0,35.9,20.4,30.7,4.1,-16.1,71,33,7,30.46,30.20,12,2,21,0.06
2013-2-11,62.9,48.0,37.4,46.6,29.1,-15.0,100,63,6,30.20,29.88,14,3,26,0.03
2013-2-12,59.9,47.5,41.8,6.1,-6.6,-21.3,20,11,4,30.05,29.92,19,6,28,0.00
2013-2-13,48.2,42.8,38.8,44.4,28.2,-6.0,100,64,10,29.94,29.62,14,2,23,0.17
2013-2-14,60.0,43.2,30.7,22.6,7.1,-17.9,57,28,5,30.05,29.83,13,2,22,0.00
2013-2-15,62.2,43.3,28.4,35.2,15.3,-15.9,80,42,5,30.08,29.90,14,3,22,0.01
2013-2-16,39.3,33.8,25.4,19.7,2.7,-13.0,45,27,14,30.00,29.84,14,5,22,0.00
2013-2-17,31.1,24.2,18.3,17.6,-15.9,-31.2,72,18,7,30.21,29.89,19,9,31,0.00
2013-2-18,53.8,37.1,17.8,7.7,-10.2,-22.9,42,16,4,30.34,30.14,10,2,14,0.00
2013-2-19,51.8,44.1,38.8,35.2,7.8,-22.5,76,29,5,30.14,29.79,19,6,31,0.02
2013-2-20,43.7,34.2,27.4,-5.5,-15.9,-25.8,18,11,5,30.16,29.95,22,10,32,0.00
2013-2-21,50.1,37.5,22.2,3.7,-10.9,-23.9,32,14,4,30.27,30.11,11,3,17,0.00
2013-2-22,41.0,34.9,28.0,26.4,14.9,-6.1,69,46,14,30.33,30.13,10,2,16,0.02
2013-2-23,52.4,40.8,31.3,42.8,30.6,22.0,100,70,34,30.14,29.81,7,0,9,0.01
2013-2-24,52.7,45.3,39.7,42.3,8.2,-34.7,100,33,5,30.08,29.81,16,6,25,0.00
2013-2-25,46.7,35.7,26.6,15.5,5.9,-4.8,55,30,12,30.21,30.08,9,1,12,0.00
2013-2-26,40.9,35.0,27.1,40.9,26.5,5.2,100,76,34,30.17,29.62,10,1,19,1.27
2013-2-27,49.8,44.3,39.4,41.8,24.3,9.4,100,52,20,29.76,29.58,14,5,22,0.00
2013-2-28,42.0,38.8,35.7,28.2,13.2,4.9,64,35,22,29.83,29.69,16,6,23,0.00
2013-3-1,40.7,38.4,34.8,16.7,9.8,2.5,42,31,23,29.91,29.79,13,5,21,0.00
2013-3-2,36.7,32.4,27.3,8.9,3.2,-1.6,36,29,22,29.91,29.85,14,7,22,0.00
2013-3-3,36.0,29.0,23.7,6.1,-1.9,-11.6,36,26,19,29.97,29.87,17,9,25,0.00
2013-3-4,49.6,35.5,24.2,-0.5,-16.0,-30.4,27,13,3,30.09,29.96,15,6,24,0.00
2013-3-5,50.0,39.7,29.9,38.6,16.1,-7.4,100,47,12,30.07,29.63,10,1,14,0.70
2013-3-6,41.9,35.6,28.2,34.2,20.2,-43.4,100,58,33,30.08,29.60,23,7,38,0.08
2013-3-7,43.7,39.3,36.8,17.0,12.4,4.7,42,33,21,30.25,30.06,19,9,31,0.00
2013-3-8,49.4,41.5,34.2,12.5,4.3,-13.3,34,23,7,30.34,30.20,17,8,28,0.00
2013-3-9,68.5,46.6,27.2,20.7,4.7,-15.7,61,24,4,30.37,30.24,10,1,14,0.00
2013-3-10,70.1,49.5,28.4,29.4,7.3,-10.6,86,28,4,30.32,30.18,11,1,17,0.00
2013-3-11,59.9,50.9,46.0,43.1,14.6,-8.8,65,27,8,30.21,29.88,17,4,23,0.01
2013-3-12,56.1,50.1,41.5,54.1,32.1,1.1,100,59,13,30.01,29.73,19,6,30,0.81
2013-3-13,46.2,39.3,28.8,32.4,9.4,-6.4,91,30,11,30.14,29.96,23,7,32,0.00
2013-3-14,46.9,36.3,25.2,3.2,-8.4,-22.1,32,17,5,30.23,30.11,19,8,28,0.00
2013-3-15,65.4,48.5,27.8,11.4,-2.0,-12.2,28,13,6,30.16,29.85,12,4,20,0.00
2013-3-16,75.9,59.6,43.1,49.2,26.7,2.8,100,37,6,29.86,29.60,22,3,39,0.04
2013-3-17,59.0,44.8,34.1,49.6,40.4,31.1,100,88,42,30.20,29.85,12,3,20,0.85
2013-3-18,37.6,32.8,29.8,37.6,32.8,29.8,100,100,100,30.22,29.88,10,2,16,0.27
2013-3-19,59.2,45.9,31.3,41.8,-1.1,-39.2,100,35,2,30.04,29.78,23,8,34,0.00
2013-3-20,52.0,42.8,28.2,13.3,-18.8,-35.4,33,8,2,30.08,29.78,18,4,26,0.00
2013-3-21,40.2,29.4,23.3,16.0,-5.4,-23.7,41,22,9,29.97,29.77,17,8,28,0.00
2013-3-22,50.0,34.0,18.2,1.6,-10.4,-24.8,37,17,4,30.04,29.93,15,3,21,0.00
2013-3-23,59.4,42.8,27.2,13.2,-5.1,-22.2,44,18,4,30.33,29.90,11,1,15,0.00
2013-3-24,46.6,35.7,29.1,35.9,22.3,-7.3,100,70,11,29.95,29.59,12,1,18,0.17
2013-3-25,42.2,34.5,27.7,37.7,20.7,1.8,100,66,20,29.77,29.52,18,5,31,0.64
2013-3-26,44.7,39.5,34.2,15.0,10.8,-1.0,41,31,16,30.11,29.77,17,8,28,0.00
2013-3-27,44.6,37.9,30.4,20.3,9.6,0.1,58,32,17,30.22,30.10,14,6,23,0.00
2013-3-28,48.9,42.4,33.9,14.8,1.8,-10.8,42,20,8,30.28,30.19,18,7,28,0.01
2013-3-29,56.0,43.4,27.8,20.9,1.2,-21.7,67,25,4,30.33,30.17,14,3,20,0.00
2013-3-30,68.9,48.9,30.6,26.4,5.7,-13.0,68,25,4,30.26,30.07,14,1,18,0.00
2013-3-31,61.5,51.2,44.2,50.1,32.9,-0.6,100,59,12,30.08,29.79,7,1,12,0.33
2013-4-1,61.0,50.9,42.1,36.9,22.4,5.9,62,35,13,30.03,29.84,18,5,29,0.00
2013-4-2,51.4,42.5,32.7,16.0,-6.6,-29.0,45,17,3,30.18,30.03,14,4,24,0.00
2013-4-3,53.2,44.4,31.2,-4.4,-18.9,-34.8,20,7,2,30.34,30.18,16,4,21,0.00
2013-4-4,44.5,36.7,29.8,35.7,7.3,-21.6,100,44,6,30.40,30.01,9,1,14,0.28
2013-4-5,64.1,47.0,31.2,41.7,15.9,-11.8,100,50,5,30.05,29.90,14,4,22,0.45
2013-4-6,64.6,50.8,35.5,31.9,6.4,-14.6,80,27,4,30.28,30.05,11,2,16,0.00
2013-4-7,74.7,58.8,43.4,31.5,13.7,-9.3,61,22,5,30.25,30.05,11,4,16,0.00
2013-4-8,82.0,64.6,47.6,41.2,19.8,-6.5,77,27,4,30.15,30.01,12,1,23,0.00
2013-4-9,89.8,71.7,56.9,39.9,21.1,-4.1,50,20,4,30.19,30.05,12,1,18,0.00
2013-4-10,94.8,77.4,66.2,39.4,20.0,-9.5,37,16,2,30.11,29.91,12,2,18,0.00
2013-4-11,87.7,73.1,61.4,50.2,29.2,2.4,64,26,5,29.95,29.76,13,3,23,0.00
2013-4-12,74.8,66.9,58.5,67.8,38.7,-6.3,100,55,4,29.82,29.67,16,6,26,1.45
2013-4-13,73.8,61.6,50.4,14.5,-2.2,-22.0,23,9,2,30.03,29.81,18,6,29,0.00
2013-4-14,80.1,64.6,49.1,20.0,1.0,-18.1,29,10,2,30.12,30.01,11,2,19,0.00
2013-4-15,68.5,57.0,50.5,53.1,47.0,9.6,100,74,10,30.27,30.07,14,4,20,0.33
2013-4-16,78.9,64.7,53.2,62.1,47.4,22.7,100,64,13,30.33,30.19,11,2,16,0.01
2013-4-17,85.7,69.8,60.2,60.5,45.8,11.4,97,50,7,30.25,30.14,8,1,13,0.00
2013-4-18,78.0,70.4,62.7,65.1,45.4,16.1,100,50,10,30.20,30.01,12,5,18,0.00
2013-4-19,71.7,65.7,49.9,68.1,52.3,18.9,100,64,29,30.01,29.68,17,6,28,0.54
2013-4-20,61.6,50.7,42.3,20.5,-1.4,-18.0,32,14,4,30.33,29.89,19,7,32,0.00
2013-4-21,61.4,49.3,36.0,26.1,7.9,-11.1,61,23,6,30.53,30.32,11,3,15,0.00
2013-4-22,65.4,51.2,32.6,36.6,7.4,-20.1,91,26,3,30.51,30.31,13,3,21,0.00
2013-4-23,71.5,57.8,48.4,32.6,21.9,0.0,47,28,7,30.34,30.11,11,3,16,0.00
2013-4-24,77.1,63.4,47.8,49.7,32.7,6.6,99,41,7,30.14,29.92,17,4,25,0.00
2013-4-25,69.8,54.7,42.2,28.7,-0.6,-24.9,43,16,2,30.34,30.08,13,4,21,0.00
2013-4-26,73.1,57.3,36.8,28.8,6.2,-14.8,60,18,3,30.48,30.34,9,1,13,0.00
2013-4-27,72.4,59.9,49.8,46.5,22.5,-0.8,65,28,6,30.39,30.28,9,1,12,0.00
2013-4-28,56.5,51.9,50.0,54.3,49.8,38.7,100,93,55,30.28,30.06,15,2,22,0.45
2013-4-29,74.3,58.1,49.8,58.6,48.8,24.7,100,78,16,30.13,30.00,7,0,10,0.06
2013-4-30,76.5,62.0,54.1,59.8,50.3,22.8,100,72,14,30.26,30.06,10,1,15,0.00
2013-5-1,74.4,61.5,52.3,55.0,37.8,1.8,100,53,7,30.40,30.25,12,3,17,0.00
2013-5-2,74.3,62.3,52.4,38.6,19.8,-0.8,46,22,6,30.40,30.30,10,2,16,0.00
2013-5-3,69.4,56.7,47.3,48.5,33.7,13.2,96,47,13,30.36,30.24,12,2,21,0.00
2013-5-4,65.6,54.4,47.4,39.5,30.0,13.4,67,42,15,30.28,30.15,13,4,22,0.00
2013-5-5,55.2,51.3,46.4,51.9,30.3,7.0,100,48,18,30.18,30.04,13,3,22,0.11
2013-5-6,56.5,52.3,50.0,56.5,52.0,45.6,100,99,82,30.08,29.89,16,4,32,1.78
2013-5-7,103.6,53.7,50.0,99.9,52.1,40.3,100,96,47,29.97,29.90,13,1,18,0.63
2013-5-8,65.6,53.4,49.8,55.8,50.4,40.0,100,92,42,30.03,29.95,7,0,8,0.41
2013-5-9,78.4,65.2,48.5,57.9,32.6,4.0,100,48,6,30.09,30.00,13,2,17,0.00
2013-5-10,88.0,68.0,51.0,64.8,39.4,7.0,100,54,6,30.10,29.95,20,2,32,0.21
2013-5-11,77.0,66.2,61.3,65.9,57.2,28.6,100,79,18,29.99,29.81,20,1,33,0.37
2013-5-12,63.0,55.8,48.6,60.1,14.6,-11.3,93,29,5,30.09,29.85,16,6,25,0.00
2013-5-13,61.7,50.5,40.9,35.7,9.6,-16.6,75,27,5,30.21,30.08,17,3,28,0.00
2013-5-14,73.8,57.8,36.4,39.9,15.9,-15.0,99,33,3,30.26,30.04,10,2,15,0.00
2013-5-15,92.0,76.1,50.0,45.8,21.1,-1.6,80,21,3,30.05,29.88,14,4,23,0.00
2013-5-16,82.1,74.8,67.7,42.6,22.6,5.0,39,17,6,30.04,29.93,16,5,25,0.00
2013-5-17,89.8,71.7,63.8,68.0,41.1,8.1,100,38,6,30.17,30.03,8,1,13,0.28
2013-5-18,71.3,66.6,63.4,67.5,61.3,49.6,100,85,47,30.22,30.14,10,2,16,0.23
2013-5-19,71.0,65.8,63.1,69.4,65.4,62.8,100,99,87,30.19,30.09,11,2,16,2.12
2013-5-20,79.1,70.2,64.8,70.7,61.5,31.0,100,79,18,30.16,30.05,10,0,14,0.06
2013-5-21,94.8,75.6,65.4,68.6,48.9,11.5,100,56,5,30.09,29.95,9,1,13,0.00
2013-5-22,89.0,72.9,63.5,68.7,49.4,29.1,100,51,12,30.03,29.93,12,2,18,0.29
2013-5-23,78.4,69.9,64.1,67.9,56.0,39.0,100,67,26,29.98,29.82,17,1,30,0.07
2013-5-24,65.2,57.3,50.2,62.3,24.5,-5.5,93,36,7,30.22,29.87,19,7,28,0.00
2013-5-25,69.4,57.2,44.5,23.3,-1.8,-24.2,42,12,2,30.29,30.19,17,5,26,0.00
2013-5-26,75.1,62.8,48.9,30.5,6.0,-20.2,48,16,2,30.29,30.19,12,2,17,0.00
2013-5-27,77.8,64.1,49.5,35.6,19.9,-1.3,56,22,5,30.33,30.18,9,1,14,0.00
2013-5-28,85.9,73.0,55.7,55.2,32.7,6.4,84,29,6,30.26,30.14,10,2,18,0.00
2013-5-29,95.2,78.3,62.9,62.4,32.8,0.2,94,31,3,30.25,30.16,9,1,16,0.00
2013-5-30,92.6,76.9,61.7,56.6,34.3,10.2,81,29,6,30.30,30.19,9,1,15,0.00
2013-5-31,91.8,76.8,63.4,57.0,36.2,12.7,75,30,6,30.25,30.12,11,1,18,0.00
2013-6-1,92.7,78.1,63.6,58.6,35.1,13.1,81,28,6,30.14,30.02,11,2,22,0.00
2013-6-2,79.2,71.5,68.0,71.2,57.2,37.2,100,65,23,30.04,29.95,8,1,12,0.85
2013-6-3,79.3,71.9,65.8,69.4,50.0,18.6,100,56,11,30.03,29.90,11,2,32,0.18
2013-6-4,82.5,70.0,54.6,60.5,38.8,1.1,100,45,5,30.17,30.03,10,1,15,0.00
2013-6-5,77.0,70.4,63.8,67.4,44.9,20.1,100,45,15,30.21,30.09,8,2,13,0.03
2013-6-6,69.0,64.4,60.7,67.2,63.0,48.8,100,96,50,30.09,29.85,8,0,12,3.70
2013-6-7,75.1,68.7,64.4,71.3,64.2,49.9,100,88,43,29.87,29.66,12,0,14,0.44
2013-6-8,89.9,71.0,61.8,65.1,43.3,3.0,100,51,5,30.13,29.85,8,1,13,0.12
2013-6-9,90.2,75.3,65.3,69.5,47.9,-15.8,99,50,2,30.20,30.08,10,2,20,0.38
2013-6-10,81.4,71.8,66.9,77.9,61.8,-18.6,100,79,2,30.12,29.57,13,2,24,0.72
2013-6-11,80.2,72.5,65.0,67.6,38.4,8.5,100,42,7,29.98,29.90,15,5,26,0.23
2013-6-12,91.5,78.1,65.4,59.8,36.1,12.5,81,29,6,30.00,29.89,13,3,21,0.00
2013-6-13,91.3,75.3,65.2,68.3,38.5,-25.7,100,32,2,29.90,29.62,23,5,44,0.27
2013-6-14,77.2,70.4,63.3,33.0,18.5,-0.1,29,16,5,30.07,29.81,13,4,22,0.00
2013-6-15,87.4,70.7,54.1,55.0,23.6,-13.7,95,29,2,30.17,30.06,10,2,15,0.00
2013-6-16,84.8,73.9,62.4,51.2,29.4,6.3,61,26,6,30.11,30.00,12,2,19,0.00
2013-6-17,91.1,76.2,67.4,67.4,43.5,10.2,97,45,6,30.07,29.95,9,1,16,0.12
2013-6-18,76.8,71.4,65.5,72.2,57.5,29.6,100,66,18,30.00,29.87,9,1,13,0.50
2013-6-19,82.3,70.3,60.8,68.1,48.2,8.5,100,59,7,30.19,29.96,9,1,14,0.02
2013-6-20,80.3,71.5,66.3,65.5,47.7,12.2,94,53,8,30.31,30.19,9,2,14,0.00
2013-6-21,86.5,73.7,63.0,56.2,25.7,4.4,66,22,5,30.34,30.25,9,2,13,0.00
2013-6-22,90.8,73.9,59.9,51.3,31.6,2.8,67,28,4,30.32,30.16,11,1,16,0.00
2013-6-23,94.1,78.2,68.4,63.2,34.4,-16.4,83,27,2,30.26,30.09,8,1,13,0.00
2013-6-24,94.0,77.9,68.4,66.1,40.5,5.7,90,35,4,30.25,30.12,8,1,16,0.01
2013-6-25,93.2,77.6,67.3,65.6,40.4,9.9,93,37,5,30.16,30.03,9,1,14,0.00
2013-6-26,92.4,74.0,65.0,72.2,49.5,-25.8,100,56,2,30.05,29.94,20,1,32,0.35
2013-6-27,82.4,73.5,66.4,69.8,44.6,9.2,100,49,7,29.96,29.75,14,2,21,0.01
2013-6-28,90.8,79.5,70.0,60.8,22.6,-14.7,72,22,2,29.79,29.58,16,3,31,0.00
2013-6-29,90.3,76.1,67.4,63.7,29.1,-2.9,78,25,3,29.77,29.64,10,2,15,0.09
2013-6-30,91.5,75.3,67.5,69.4,47.9,4.1,100,54,4,29.91,29.75,12,1,18,0.14
2013-7-1,85.8,74.6,68.5,69.4,45.3,5.3,100,49,5,30.02,29.88,10,2,15,0.09
2013-7-2,75.6,72.3,69.1,71.3,62.6,43.3,100,74,34,30.22,30.01,12,2,20,2.13
2013-7-3,77.7,72.6,69.5,73.0,66.9,38.7,100,85,25,30.29,30.18,8,1,14,1.51
2013-7-4,92.8,76.2,69.9,74.7,56.0,6.5,100,66,5,30.32,30.23,10,1,16,2.78
2013-7-5,91.0,79.0,70.2,72.0,40.9,8.7,100,42,5,30.31,30.22,10,2,16,0.00
2013-7-6,92.1,77.4,70.2,70.4,43.4,-0.4,94,45,4,30.29,30.17,11,1,16,0.03
2013-7-7,88.8,74.8,69.4,71.5,54.1,12.3,100,62,6,30.22,30.13,12,1,16,0.38
2013-7-8,90.9,75.4,67.5,70.1,42.4,-2.1,100,49,3,30.23,30.14,8,0,10,0.01
2013-7-9,96.0,80.2,71.0,65.8,36.2,-8.4,82,33,2,30.20,30.10,8,1,13,0.00
2013-7-10,93.9,77.0,69.8,73.0,51.6,9.1,100,61,5,30.13,29.98,12,1,22,2.50
2013-7-11,91.8,74.7,67.6,72.5,48.4,-19.7,100,58,2,30.00,29.93,10,1,16,1.32
2013-7-12,78.0,70.7,66.7,68.4,33.9,-18.1,100,42,3,30.11,29.94,8,1,14,0.45
2013-7-13,79.8,72.3,67.3,65.8,37.6,-3.7,93,39,4,30.26,30.10,10,1,15,0.38
2013-7-14,90.8,77.8,70.3,65.2,23.2,-16.6,80,30,2,30.39,30.26,11,4,18,0.02
2013-7-15,97.1,80.8,70.8,59.1,15.7,-14.9,64,16,2,30.40,30.31,7,0,10,0.00
2013-7-16,99.9,79.9,69.3,58.9,21.3,-18.2,68,22,2,30.36,30.26,11,1,21,0.00
2013-7-17,96.1,80.7,72.1,58.2,23.0,-13.4,61,23,2,30.32,30.20,9,1,13,0.00
2013-7-18,99.1,81.7,71.7,69.3,25.4,-10.1,91,28,2,30.23,30.11,7,1,49,0.00
2013-7-19,97.1,81.4,71.9,65.5,19.4,-11.8,79,21,2,30.15,30.01,9,1,15,0.00
2013-7-20,96.2,79.9,72.8,51.0,14.8,-14.5,44,13,2,30.04,29.93,8,1,13,0.00
2013-7-21,95.0,77.5,70.9,56.0,20.4,-16.1,53,18,2,30.04,29.97,8,0,32,0.02
2013-7-22,94.7,77.9,71.5,68.9,27.5,-16.2,87,28,2,30.02,29.85,10,1,16,0.07
2013-7-23,90.1,77.8,70.7,57.0,12.7,-18.1,59,17,2,29.87,29.77,12,2,18,0.01
2013-7-24,89.2,77.4,71.5,40.3,1.5,-18.4,32,8,2,29.96,29.80,10,2,14,0.00
2013-7-25,87.3,74.2,67.1,21.5,-7.2,-20.7,16,4,2,30.11,29.95,8,1,14,0.00
2013-7-26,84.5,73.6,64.3,39.1,0.9,-19.2,36,9,2,30.17,30.07,10,2,13,0.00
2013-7-27,74.2,70.8,68.6,59.7,34.8,2.5,71,30,6,30.10,29.99,8,0,12,0.42
2013-7-28,91.3,74.7,67.1,57.7,13.5,-19.4,71,22,2,30.06,29.96,8,1,12,0.00
2013-7-29,80.5,71.4,61.9,29.0,-12.1,-23.8,28,4,2,30.26,30.06,11,2,16,0.00
2013-7-30,88.8,70.9,59.2,21.0,-9.7,-24.2,22,5,2,30.31,30.15,8,1,12,0.00
2013-7-31,76.2,69.8,66.2,40.7,9.1,-22.5,37,13,2,30.22,30.06,6,0,9,0.06
2013-8-1,89.1,72.4,65.6,49.5,10.7,-21.4,55,20,2,30.06,29.91,11,2,17,0.02
2013-8-2,83.4,73.5,64.3,38.1,-8.6,-22.1,37,6,2,30.09,29.99,12,2,18,0.00
2013-8-3,88.4,73.3,65.1,16.6,-9.6,-23.4,15,4,2,30.07,29.98,9,1,14,0.00
2013-8-4,80.6,74.0,67.7,28.4,-12.0,-23.2,22,4,2,30.13,29.98,12,2,20,0.00
2013-8-5,79.0,71.6,61.6,12.0,-15.0,-23.9,14,3,2,30.17,30.06,9,2,14,0.00
2013-8-6,86.9,74.4,68.1,55.9,5.1,-22.1,57,14,2,30.08,30.02,10,2,14,0.66
2013-8-7,79.7,73.2,69.4,58.5,34.8,-18.1,67,34,2,30.13,30.07,8,1,12,0.07
2013-8-8,84.7,74.8,71.5,73.0,30.3,-18.2,96,32,2,30.11,30.05,8,2,12,0.99
2013-8-9,93.9,78.0,69.5,67.3,21.2,-17.9,89,29,2,30.07,30.00,11,2,18,0.13
2013-8-10,93.0,79.4,73.2,45.3,4.8,-18.4,35,10,2,30.14,30.06,11,1,17,0.00
2013-8-11,92.7,77.0,72.3,55.7,20.9,-17.9,55,20,2,30.17,30.06,12,1,20,0.32
2013-8-12,93.9,78.0,69.3,64.6,18.8,-18.3,83,24,2,30.12,29.97,8,1,12,0.07
2013-8-13,82.8,73.8,70.5,52.0,16.5,-19.7,50,19,2,30.02,29.86,14,1,24,0.30
2013-8-14,77.1,69.8,63.1,5.9,-17.9,-26.9,8,3,2,30.18,29.92,12,3,18,0.00
2013-8-15,78.9,65.8,51.4,22.4,-12.6,-27.4,30,6,2,30.24,30.14,8,1,12,0.00
2013-8-16,79.5,66.4,51.0,35.8,-3.4,-26.0,51,12,2,30.25,30.17,8,1,12,0.01
2013-8-17,74.2,64.2,54.1,61.1,21.4,-23.6,91,37,2,30.29,30.22,9,0,13,0.33
2013-8-18,72.4,66.1,61.8,65.0,47.4,10.2,100,61,9,30.29,30.21,6,0,8,1.14
2013-8-19,77.5,69.5,64.1,61.8,30.1,-19.3,89,37,2,30.26,30.13,8,1,10,0.11
2013-8-20,88.6,73.5,65.4,68.0,19.3,-18.7,100,30,2,30.25,30.16,9,1,13,0.00
2013-8-21,90.9,75.2,68.2,58.7,14.5,-18.4,60,17,2,30.28,30.15,8,0,12,0.15
2013-8-22,91.2,76.1,66.1,59.3,-0.1,-20.1,62,11,2,30.20,30.06,10,1,15,0.05
2013-8-23,82.6,73.1,66.3,32.3,2.4,-19.8,24,8,2,30.19,30.00,16,1,23,0.03
2013-8-24,84.7,70.6,59.7,60.7,4.2,-23.6,99,21,2,30.38,30.19,8,0,13,0.01
2013-8-25,82.4,70.3,59.6,36.4,-5.2,-24.4,41,8,2,30.46,30.34,8,1,12,0.00
2013-8-26,92.9,72.4,55.2,40.2,-3.2,-23.7,49,10,2,30.38,30.14,6,0,9,0.00
2013-8-27,84.1,74.8,66.4,26.8,-7.3,-23.6,22,5,2,30.15,30.00,13,2,21,0.00
2013-8-28,84.7,75.6,72.2,42.8,6.0,-20.1,33,10,2,30.06,29.90,8,1,10,0.23
2013-8-29,94.0,77.7,71.5,46.3,4.9,-19.8,40,10,2,30.10,29.90,11,1,15,0.02
2013-8-30,94.9,77.0,68.1,47.6,11.6,-21.6,44,13,2,30.13,29.98,8,1,12,0.01
2013-8-31,93.3,74.9,69.5,55.0,36.3,-12.4,57,32,2,30.00,29.90,14,1,26,0.33
2013-9-1,90.9,74.8,67.1,64.3,36.6,-9.6,87,37,2,29.95,29.84,10,1,14,0.07
2013-9-2,90.0,77.3,69.0,57.0,25.5,-13.6,64,26,2,29.94,29.84,11,2,15,0.00
2013-9-3,89.0,76.5,70.7,58.0,45.7,15.4,54,35,10,30.05,29.86,12,2,19,0.01
2013-9-4,90.5,72.9,62.1,60.8,54.5,40.1,80,56,26,30.17,29.95,7,1,10,0.00
2013-9-5,88.4,72.8,62.4,60.6,53.1,41.7,82,55,22,30.19,30.10,11,3,18,0.00
2013-9-6,82.2,70.9,63.5,59.6,53.3,41.6,83,57,27,30.28,30.17,8,1,12,0.00
2013-9-7,88.1,70.6,54.6,67.3,60.4,49.5,98,72,47,30.20,30.02,9,1,12,0.00
2013-9-8,91.7,74.2,63.7,69.9,64.9,59.9,96,75,44,30.06,29.96,7,1,12,0.00
2013-9-9,83.2,73.6,67.2,71.6,66.7,61.7,98,81,54,30.23,30.06,10,1,14,0.00
2013-9-10,94.5,76.5,67.7,74.4,69.4,63.6,100,81,45,30.28,30.19,8,0,10,0.04
2013-9-11,96.3,79.3,69.4,73.1,69.9,62.6,100,76,41,30.25,30.11,9,1,14,0.01
2013-9-12,93.4,78.7,71.7,71.0,67.3,58.5,94,70,40,30.11,29.87,10,2,15,0.00
2013-9-13,78.1,71.5,62.3,65.7,56.1,45.8,90,61,34,30.00,29.83,14,3,23,0.00
2013-9-14,76.7,63.3,49.9,55.3,51.2,46.8,95,68,38,30.19,30.00,8,0,10,0.00
2013-9-15,80.0,64.3,49.6,62.3,55.0,47.6,100,75,46,30.28,30.14,9,1,14,0.00
2013-9-16,76.4,68.1,59.8,64.9,60.4,55.0,98,78,52,30.29,30.14,11,1,16,0.00
2013-9-17,77.2,61.5,50.0,58.7,53.0,32.2,100,76,43,30.42,30.28,8,0,12,0.00
2013-9-18,75.8,61.0,49.6,60.2,53.8,47.9,98,79,51,30.36,30.22,8,1,12,0.00
2013-9-19,76.5,69.2,63.6,66.4,62.5,59.1,94,80,60,30.24,30.12,6,0,9,0.00
2013-9-20,73.4,69.3,65.4,71.2,67.8,64.9,100,95,87,30.14,30.00,6,0,9,0.91
2013-9-21,71.0,67.6,62.0,70.9,67.6,61.9,100,100,95,30.00,29.75,11,1,16,0.57
2013-9-22,75.7,63.8,50.6,63.5,56.1,50.6,100,79,47,29.99,29.81,11,1,16,0.01
2013-9-23,76.7,64.1,52.3,60.1,56.1,50.6,96,77,51,30.12,29.98,8,1,10,0.00
2013-9-24,79.1,66.6,58.0,62.8,58.2,54.2,96,76,49,30.15,29.98,7,1,10,0.00
2013-9-25,74.0,66.0,57.8,65.2,61.8,56.7,100,87,66,30.01,29.88,8,0,10,0.02
2013-9-26,79.2,68.9,62.6,65.7,60.3,52.4,100,78,44,30.12,29.96,7,0,10,0.00
2013-9-27,69.0,56.1,50.7,60.9,54.4,50.5,100,94,74,30.22,30.12,5,0,7,0.00
2013-9-28,74.3,67.4,58.2,60.5,57.5,43.1,91,72,52,30.33,30.25,9,1,36,0.00
2013-9-29,76.6,61.8,50.0,58.9,54.1,49.8,100,79,47,30.25,30.09,8,0,11,0.00
2013-9-30,80.5,65.1,52.0,61.9,56.4,51.4,100,76,42,30.14,30.03,7,0,9,0.00
2013-10-1,81.3,67.6,54.4,63.6,58.8,51.3,100,77,39,30.18,30.08,10,0,15,0.00
2013-10-2,82.8,69.0,54.9,63.4,59.4,54.3,100,75,41,30.19,30.09,9,1,14,0.00
2013-10-3,84.2,69.5,60.1,66.1,61.9,56.4,100,79,45,30.19,30.11,6,0,9,0.01
2013-10-4,90.8,72.3,61.8,66.7,63.8,58.6,100,78,42,30.19,30.10,10,1,12,0.00
2013-10-5,92.0,74.9,63.5,68.1,64.9,60.8,100,75,42,30.19,30.08,7,0,10,0.00
2013-10-6,88.8,72.8,62.6,68.9,63.6,59.8,97,75,45,30.10,29.95,11,1,20,0.00
2013-10-7,72.5,67.7,53.5,70.7,60.8,46.8,100,80,55,30.12,29.83,12,2,18,2.38
2013-10-8,74.0,60.1,49.6,51.5,48.1,44.0,91,67,43,30.30,30.11,11,2,16,0.00
2013-10-9,69.5,57.9,49.7,52.1,49.6,45.7,99,76,49,30.32,30.22,10,1,15,0.00
2013-10-10,67.8,58.1,49.9,63.4,55.2,44.9,100,91,76,30.22,30.03,12,3,20,0.23
2013-10-11,74.2,66.0,59.7,64.2,60.2,57.6,96,82,60,30.04,29.96,9,2,14,0.00
2013-10-12,70.5,65.9,61.9,66.3,63.2,60.3,100,91,80,30.18,30.03,8,1,12,0.06
2013-10-13,70.5,66.0,63.0,65.4,63.4,61.8,100,92,79,30.31,30.16,7,0,11,0.05
2013-10-14,73.1,64.5,59.5,65.1,60.4,54.9,100,88,56,30.34,30.23,9,0,13,0.25
2013-10-15,76.1,61.4,50.6,60.3,52.9,46.6,100,77,37,30.29,29.60,7,0,9,0.01
2013-10-16,74.0,63.9,51.4,60.2,56.0,49.7,95,77,53,30.14,29.98,5,0,8,0.00
2013-10-17,71.4,65.8,61.6,66.0,61.1,51.1,93,85,68,29.99,29.83,13,1,21,0.05
2013-10-18,72.0,58.5,49.7,51.8,44.0,38.0,83,61,34,30.08,29.95,14,2,21,0.00
2013-10-19,64.8,56.2,49.5,57.6,50.6,41.8,94,82,63,30.03,29.84,9,1,14,0.00
2013-10-20,68.6,53.5,45.0,42.7,37.3,31.2,79,56,31,30.14,29.96,12,2,22,0.00
2013-10-21,71.3,53.8,40.0,50.3,44.6,38.1,96,74,44,30.19,29.99,8,0,10,0.00
2013-10-22,70.7,58.2,49.7,50.7,47.0,43.6,92,69,40,30.00,29.83,14,2,28,0.00
2013-10-23,62.1,51.4,45.2,50.4,41.6,30.0,95,71,39,30.01,29.73,19,4,34,0.09
2013-10-24,53.0,46.0,38.8,34.9,32.5,27.2,79,60,40,30.20,30.00,15,3,21,0.00
2013-10-25,50.5,42.6,34.7,34.8,29.9,23.9,86,63,37,30.37,30.19,17,3,23,0.00
2013-10-26,64.3,44.0,27.1,35.9,28.7,22.2,91,61,23,30.36,30.03,9,1,15,0.00
2013-10-27,70.0,55.1,44.6,41.7,37.1,26.4,77,53,28,30.14,30.03,16,2,24,0.00
2013-10-28,68.0,54.2,42.1,55.0,46.2,38.9,92,76,47,30.29,30.14,7,0,9,0.01
2013-10-29,73.8,62.0,50.9,57.2,51.6,47.8,95,71,42,30.38,30.27,7,1,10,0.00
2013-10-30,74.0,64.0,54.2,61.9,55.5,50.0,90,75,55,30.32,30.17,8,0,12,0.08
2013-10-31,72.3,65.6,60.1,61.9,58.2,54.0,93,78,55,30.20,29.83,11,2,17,0.00
2013-11-1,77.3,69.6,61.1,63.3,56.2,41.9,92,64,30,29.83,29.65,12,3,21,0.13
2013-11-2,68.9,57.6,49.8,47.4,37.9,29.3,73,50,26,29.98,29.73,16,4,28,0.00
2013-11-3,63.4,50.7,41.6,36.4,33.8,28.8,75,53,32,30.42,29.98,13,3,18,0.00
2013-11-4,54.0,44.6,33.6,36.5,31.1,25.9,89,62,37,30.59,30.40,9,1,12,0.00
2013-11-5,53.8,47.0,37.5,44.0,35.3,27.7,94,64,46,30.62,30.47,6,0,7,0.00
2013-11-6,72.5,57.9,48.8,55.4,48.3,43.7,91,73,44,30.48,30.12,10,2,16,0.00
2013-11-7,62.2,52.9,48.2,55.0,46.8,32.4,94,81,43,30.12,29.98,18,3,32,0.01
2013-11-10,67.3,53.3,44.6,30.1,25.5,19.8,50,36,17,30.29,30.07,23,7,28,0.01
2013-11-11,65.3,49.3,35.6,33.0,28.3,23.4,71,46,23,30.35,30.10,10,1,16,0.00
2013-11-12,52.4,43.8,29.8,35.5,24.3,13.1,57,46,30,30.44,30.01,16,5,25,0.00
2013-11-13,47.2,36.6,27.2,24.3,17.1,12.3,73,47,25,30.53,30.42,13,4,21,0.00
2013-11-14,64.4,44.0,28.9,25.4,18.8,11.9,59,40,15,30.43,30.28,10,2,14,0.00
2013-11-15,65.1,48.6,33.7,49.3,31.0,20.7,94,55,21,30.32,30.19,8,0,10,0.55
2013-11-16,59.5,52.4,49.0,54.3,50.2,47.6,97,93,82,30.31,30.23,5,0,8,0.06
2013-11-17,63.6,57.3,51.2,62.7,56.2,50.6,98,96,91,30.25,29.83,11,4,15,0.17
2013-11-18,67.8,59.4,48.4,63.2,36.4,23.0,97,45,21,30.02,29.79,19,8,32,0.10
2013-11-19,50.9,45.8,41.1,29.1,27.3,23.2,60,49,36,30.34,30.01,18,5,30,0.00
2013-11-20,51.8,43.2,34.9,31.9,28.0,23.2,77,56,35,30.50,30.34,9,1,15,0.00
2013-11-21,52.1,47.6,43.6,42.2,37.5,30.6,74,68,59,30.54,30.41,6,0,8,0.00
2013-11-22,70.4,58.4,48.3,58.3,49.8,41.1,87,74,55,30.42,30.09,9,1,14,0.00
2013-11-23,61.4,47.9,30.9,51.5,30.5,14.0,72,52,28,30.24,30.08,19,8,30,0.00
2013-11-24,35.2,27.6,21.6,17.9,7.0,0.2,53,42,28,30.51,30.24,24,8,37,0.00
2013-11-25,43.9,33.0,21.3,18.9,13.3,7.2,59,45,30,30.52,30.33,7,1,12,0.00
2013-11-26,44.4,38.9,32.7,44.4,35.8,16.1,100,90,42,30.35,29.63,8,0,13,1.80
2013-11-27,46.4,36.7,24.5,46.3,29.5,10.2,100,76,54,30.14,29.56,19,9,29,0.07
2013-11-28,45.9,32.7,23.9,23.9,18.9,12.3,75,58,36,30.44,30.13,14,3,23,0.00
2013-11-29,50.1,36.0,23.4,26.3,23.2,18.5,85,62,36,30.65,30.42,9,0,14,0.00
2013-11-30,46.7,34.5,24.5,27.4,23.5,17.9,84,65,44,30.66,30.35,8,0,12,0.00
2013-12-1,58.3,38.5,22.4,32.2,26.0,19.8,92,65,28,30.35,30.02,8,1,13,0.00
2013-12-2,53.1,44.2,31.5,43.3,34.8,27.7,87,70,50,30.02,29.83,5,0,7,0.00
2013-12-3,64.1,49.2,38.2,45.7,40.4,34.2,90,73,45,29.98,29.86,7,0,10,0.00
2013-12-4,66.5,54.3,45.7,54.6,48.5,43.1,93,82,56,30.08,29.97,7,0,12,0.00
2013-12-5,69.3,59.8,49.9,63.9,56.5,48.6,98,89,75,30.11,29.99,7,0,12,0.03
2013-12-6,74.4,67.1,49.9,69.0,62.6,48.3,98,86,66,30.09,29.90,12,2,21,1.16
2013-12-7,50.6,46.0,42.6,49.2,38.2,33.3,96,75,57,30.48,30.08,11,4,16,0.12
2013-12-8,43.2,35.3,28.1,35.4,31.0,25.0,95,85,69,30.48,30.24,10,2,14,0.03
2013-12-9,48.7,39.9,30.3,44.6,37.6,29.3,97,92,80,30.25,30.04,9,1,13,0.24
2013-12-10,42.8,37.8,29.7,40.9,31.0,16.1,99,78,54,30.26,29.96,19,4,28,0.40
2013-12-11,48.2,35.9,26.5,23.6,19.1,12.9,67,51,26,30.41,30.24,15,4,22,0.00
2013-12-12,38.9,31.8,25.2,20.3,12.7,5.0,59,46,26,30.41,30.26,16,5,25,0.00
2013-12-13,48.2,36.8,26.2,27.3,16.8,9.5,64,45,28,30.34,30.22,12,3,18,0.00
2013-12-14,41.4,39.1,35.9,39.1,35.7,24.1,100,88,58,30.29,29.74,8,0,13,0.38
2013-12-15,46.4,40.6,34.4,42.5,32.4,25.1,100,74,53,30.03,29.69,20,7,33,0.00
2013-12-16,49.1,40.7,32.7,35.0,31.0,25.0,82,69,51,30.14,30.00,12,3,17,0.00
2013-12-17,59.0,43.0,30.2,40.3,32.7,24.1,93,69,39,30.09,29.89,24,4,38,0.01
2013-12-18,48.2,39.0,30.9,26.5,20.6,16.6,64,48,31,30.25,29.99,21,6,35,0.00
2013-12-19,66.8,48.4,34.3,30.3,23.7,17.5,58,40,20,30.23,30.14,12,2,19,0.00
2013-12-20,64.9,50.0,41.1,39.9,32.6,26.1,72,53,30,30.18,30.06,6,0,8,0.00
2013-12-21,68.8,57.7,45.5,61.7,49.6,38.3,87,75,61,30.09,29.97,10,2,16,0.00
2013-12-22,68.0,63.6,59.6,64.4,60.3,53.3,98,89,65,30.08,29.94,15,3,25,0.76
2013-12-23,62.9,51.8,36.7,62.2,46.2,25.5,98,82,63,30.24,29.98,15,5,24,0.80
2013-12-24,42.7,32.8,23.8,29.0,20.6,8.7,81,61,44,30.45,30.21,17,5,30,0.00
2013-12-25,41.6,28.9,19.2,17.6,14.2,9.3,77,56,33,30.52,30.32,9,1,16,0.00
2013-12-26,48.7,36.2,23.9,27.0,20.6,14.7,79,55,35,30.38,30.22,16,3,25,0.00
2013-12-27,52.1,36.6,24.1,26.5,21.6,16.8,82,58,26,30.45,30.34,8,0,12,0.00
2013-12-28,57.3,40.8,25.4,40.3,26.2,19.4,90,59,27,30.38,30.16,5,0,8,0.09
2013-12-29,51.3,46.3,42.3,47.0,42.3,39.0,99,87,68,30.16,29.68,14,3,23,0.92
2013-12-30,48.0,44.1,36.3,38.9,33.7,27.1,74,67,56,30.14,29.90,18,4,28,0.00
2013-12-31,47.1,39.5,31.3,31.8,23.0,16.8,74,53,31,30.34,30.10,17,4,30,0.00
2014-1-1,51.0,38.7,27.6,28.5,24.7,19.4,80,59,32,30.38,30.10,14,2,18,0.00
2014-1-2,43.4,36.7,27.9,42.0,31.8,19.1,97,83,60,30.10,29.62,21,1,34,0.14